Location: Unspecified
(0.0000°N, 0.0000°E)
Time: 16:21:50
(UTC+00:00)

Courier 1B Rocket - Pass Details

Date: 27 November 2019
Orbit: 920 x 1202 km, 28.2° (Epoch: 12 December)

Event Time Altitude Azimuth Distance (km) Brightness Sun altitude
Rises 10:01:23 0° 277° (W) 3,553 7.7 56.6°
Reaches altitude 10° 10:05:02 10° 297° (WNW) 2,600 7.0 57.3°
Maximum altitude 10:08:48 16° 335° (NNW) 2,174 6.7 58.0°
Drops below altitude 10° 10:12:36 10° 13° (NNE) 2,621 7.2 58.7°
Sets 10:16:20 0° 34° (NNE) 3,596 7.9 59.3°
